Regional Weather Roundup
Issued by NWS Little Rock, AR

Home | Current Version | Previous Version | Graphics & Text | Print | Product List | Glossary On
Versions: 1 2 3 4 5 6 7 8 9 10 11 12 13 14 15 16 17 18 19 20 21 22 23 24 25 26 27 28 29 30 31 32 33 34 35 36 37 38 39 40 41 42 43 44 45 46 47 48 49
065
ASUS44 KLZK 100405
RWRLZK

WEATHER ROUNDUP FOR ARKANSAS
NATIONAL WEATHER SERVICE LITTLE ROCK AR
1000 PM CST TUE FEB 09 2016

NOTE: "FAIR" INDICATES FEW OR NO CLOUDS BELOW 12,000 FEET WITH NO
SIGNIFICANT WEATHER AND/OR OBSTRUCTIONS TO VISIBILITY.

ARZ001-003-010-029-100500-
NORTHWEST ARKANSAS

CITY           SKY/WX    TMP DP  RH WIND       PRES   REMARKS
FAYETTEVILLE   CLEAR     27   9  46 NW15      30.26R WCI  15
FORT SMITH     CLEAR     37   7  28 NW15G26   30.28R
HARRISON       CLEAR     26   5  40 NW14G28   30.20R WCI  14
BENTONVILLE    CLEAR     27   3  36 N10G20    30.26R WCI  17
ROGERS         CLEAR     26   7  44 NW12G22   30.25R WCI  16
SILOAM SPGS    CLEAR     27   5  39 N18       30.28R WCI  13
HIGHFILL       CLEAR     26   8  46 N14G23    30.26R WCI  14
$$

ARZ004-005-016-100500-
NORTH CENTRAL ARKANSAS

CITY           SKY/WX    TMP DP  RH WIND       PRES   REMARKS
BATESVILLE     CLEAR     30   7  37 W7G17     30.20R WCI  23
FLIPPIN        CLEAR    N/A N/A N/A NW10G23   30.18R
MTN HOME       CLEAR     28   4  35 NW13G22   30.18R WCI  17
$$

ARZ040-041-100500-
WEST CENTRAL ARKANSAS

CITY           SKY/WX    TMP DP  RH WIND       PRES   REMARKS
MENA           CLEAR     41  14  33 NW13G23   30.23S
MOUNT IDA      CLEAR     37  12  35 CALM      30.19R
$$

ARZ009-017-025-026-028-100500-
NORTHEAST ARKANSAS

CITY           SKY/WX    TMP DP  RH WIND       PRES   REMARKS
CORNING        FAIR      27  14  59 NW6       30.18R WCI  20
JONESBORO      CLEAR     28  11  48 W6        30.17S WCI  22
NEWPORT        CLEAR     28  11  49 NW9       30.21R WCI  19
WALNUT RIDGE   CLEAR     27  10  50 N12       30.19R WCI  16
BLYTHEVILLE    CLEAR     24  16  71 NW3       30.17R
$$

ARZ022-023-033-042-044-100500-
CENTRAL ARKANSAS

CITY           SKY/WX    TMP DP  RH WIND       PRES   REMARKS
LITTLE ROCK    CLEAR     38   9  30 NW12      30.22R
N LITTLE ROCK  CLEAR     35  11  37 NW6       30.22R WCI  30
JACKSONVILLE   CLEAR     26  13  57 CALM      30.20R
SEARCY         CLEAR     34   9  35 NW6       30.22S WCI  29
HOT SPRINGS    CLEAR     38  12  34 NW3       30.22R
RUSSELLVILLE   CLEAR     36   9  32 NW14G22   30.21R
CLINTON        FAIR      28   9  43 CALM      30.22R
$$

ARZ036-100500-
EAST ARKANSAS

CITY           SKY/WX    TMP DP  RH WIND       PRES   REMARKS
WEST MEMPHIS   HAZE      28  18  66 W3        30.17S VSB 1/4
$$

ARZ050-053-066-070-073-100500-
SOUTHWEST ARKANSAS

CITY           SKY/WX    TMP DP  RH WIND       PRES   REMARKS
ARKADELPHIA    FAIR      41  15  35 NW7       30.25R
CAMDEN         MIX PCPN  39  12  33 NW5       30.24R
TEXARKANA      CLEAR     41  18  39 NW5       30.26R
EL DORADO      CLEAR     35  18  49 CALM      30.23R
DE QUEEN       CLEAR     39  18  42 W5        30.26R
$$

ARZ056-057-069-100500-
SOUTHEAST ARKANSAS

CITY           SKY/WX    TMP DP  RH WIND       PRES   REMARKS
PINE BLUFF     CLEAR     38   9  30 NW9       30.22R
STUTTGART      CLEAR     32  18  55 NW3       30.21R
MONTICELLO     CLEAR     38  12  34 CALM      30.21R

$$






USA.gov is the U.S. government's official web portal to all federal, state and local government web resources and services.